Airfield :
LOGIN :

Register | Disclaimer

   EN    FR    IT 

 










Legend :    VFR   Marginal VFR   IFR   Intensive IFR   Very Intensive IFR
Visi :
Ceiling :
>= 8 km
>= 3000ft
5 to 8 km
1000 to 3000 ft
1500m to 5 km
500 to 1000 ft
800 to 1500m
200 to 500 ft
< 800m
< 200 ft
Symbols :   Thunderstorms  Fog  Heavy snow  Heavy precipitations  Wind > 20 kt
SIGMETs :     Misc.  Thunderstorms  Icing  Turbulence  Mountain Waves  Volcanic Ashes






- Airport Elevation : 158 ft
- IATA code : QAR


EHDL - Deelen Airbase

CURRENT METAR :
  • 031325Z AUTO 27003KT 220V310 9999 OVC053 16/14 Q1013 BLU

EXPIRED METARs :
  • 031255Z AUTO 27001KT 5000 -RA SCT027 SCT039 OVC050 16/14 Q1013 WHT
  • 031225Z AUTO VRB02KT 9999 -SHRA OVC025 17/13 Q1013 BLU
  • 031155Z AUTO 07003KT 010V130 1200 HZ SCT042 OVC046 17/13 Q1013 AMB
  • 031125Z AUTO VRB03KT 6000 HZ FEW034 OVC054 18/12 Q1013 WHT
  • 031055Z AUTO VRB04KT 9999 FEW032 OVC059 18/13 Q1013 BLU

Expired Forecast.



MET'MAP, your aeronautical weather chart ! - Copyright ORBIFLY December 2007 - Disclaimer

ORBIFLY MET'MAP TEAM :

Programming & Development : Alexandra Zaïnal
Concept & original design : Baudouin d'Aumeries
Assistance for programming : Marc-Olivier Méhu
Technical & hardware support : Manuel Goepfert

Contact : metmap@orbifly.com




SOURCES & CREDITS :

   NOAA